DLH3FW EDDM-EDDV

Flight info

Callsign DLH3FW
Flight time 0h 54m
Altitude 30000
Route INPUD2S INPUD Y102 UPALA M726 LASTO M852 BIRKA/N0360F240 T803 GITEX GITEX4R
Aircraft A21N/M-SDE2E3FGIJ1LORWXYZ/HB1

Departure

Time 2026-05-07 15:39
Airport Munich Airport (EDDM)

Arrival

Time 2026-05-07 16:34
Airport Hannover Airport (EDDV)
Time Latitude Longitude Altitude Speed Heading
2026-05-07 15:16 48.35692 11.79259 1473 ft 0 kts 264°
2026-05-07 15:27 48.35692 11.79263 1473 ft 0 kts 250°
2026-05-07 15:27 48.35699 11.79279 1473 ft 2 kts 233°
2026-05-07 15:27 48.35708 11.79297 1474 ft 2 kts 231°
2026-05-07 15:28 48.35717 11.79313 1474 ft 1 kts 250°
2026-05-07 15:28 48.35719 11.79335 1474 ft 2 kts 268°
2026-05-07 15:28 48.35720 11.79357 1473 ft 2 kts 262°
2026-05-07 15:28 48.35719 11.79380 1472 ft 2 kts 295°
2026-05-07 15:29 48.35711 11.79399 1472 ft 2 kts 320°
2026-05-07 15:29 48.35698 11.79410 1471 ft 2 kts 345°
2026-05-07 15:29 48.35694 11.79411 1470 ft 0 kts 352°
2026-05-07 15:29 48.35688 11.79412 1470 ft 1 kts 355°
2026-05-07 15:30 48.35686 11.79412 1470 ft 0 kts 355°
2026-05-07 15:31 48.35701 11.79410 1471 ft 4 kts 353°
2026-05-07 15:31 48.35731 11.79404 1472 ft 4 kts 352°
2026-05-07 15:32 48.35777 11.79394 1474 ft 8 kts 352°
2026-05-07 15:32 48.35841 11.79382 1475 ft 11 kts 355°
2026-05-07 15:32 48.35911 11.79466 1472 ft 15 kts 57°
2026-05-07 15:32 48.35993 11.79495 1467 ft 6 kts 354°
2026-05-07 15:33 48.36030 11.79489 1465 ft 2 kts 353°
2026-05-07 15:33 48.36048 11.79485 1464 ft 0 kts 353°
2026-05-07 15:33 48.36059 11.79483 1464 ft 3 kts 353°
2026-05-07 15:34 48.36101 11.79476 1462 ft 7 kts 353°
2026-05-07 15:34 48.36170 11.79465 1461 ft 11 kts
2026-05-07 15:34 48.36221 11.79571 1457 ft 16 kts 83°
2026-05-07 15:34 48.36236 11.79754 1455 ft 19 kts 84°
2026-05-07 15:35 48.36252 11.79969 1452 ft 22 kts 83°
2026-05-07 15:35 48.36274 11.80211 1450 ft 24 kts 82°
2026-05-07 15:35 48.36291 11.80477 1448 ft 26 kts 83°
2026-05-07 15:35 48.36313 11.80759 1447 ft 28 kts 83°
2026-05-07 15:36 48.36330 11.80985 1446 ft 16 kts 86°
2026-05-07 15:36 48.36343 11.81172 1445 ft 19 kts 84°
2026-05-07 15:36 48.36360 11.81385 1446 ft 21 kts 82°
2026-05-07 15:36 48.36380 11.81608 1447 ft 22 kts 85°
2026-05-07 15:37 48.36396 11.81848 1447 ft 20 kts 83°
2026-05-07 15:37 48.36436 11.81997 1447 ft 14 kts
2026-05-07 15:37 48.36534 11.81984 1446 ft 9 kts 354°
2026-05-07 15:37 48.36602 11.81972 1446 ft 10 kts 354°
2026-05-07 15:38 48.36673 11.81940 1446 ft 11 kts 293°
2026-05-07 15:38 48.36669 11.81858 1446 ft 2 kts 262°
2026-05-07 15:38 48.36669 11.81853 1446 ft 0 kts 262°
2026-05-07 15:38 48.36664 11.81794 1446 ft 21 kts 263°
2026-05-07 15:39 48.36617 11.81170 1447 ft 95 kts 264°
2026-05-07 15:39 48.36514 11.79859 1456 ft 154 kts 264°
2026-05-07 15:39 48.36381 11.78118 1799 ft 173 kts 265°
2026-05-07 15:39 48.36256 11.76313 2379 ft 179 kts 265°
2026-05-07 15:40 48.36107 11.74447 3054 ft 182 kts 265°
2026-05-07 15:40 48.35950 11.72532 3567 ft 192 kts 265°
2026-05-07 15:40 48.35778 11.70434 3924 ft 209 kts 264°
2026-05-07 15:40 48.35851 11.68191 4261 ft 225 kts 292°
2026-05-07 15:41 48.36727 11.66254 4808 ft 233 kts 319°
2026-05-07 15:41 48.38211 11.65142 5243 ft 252 kts 345°
2026-05-07 15:41 48.39993 11.64617 5764 ft 264 kts 348°
2026-05-07 15:41 48.41826 11.64138 6422 ft 271 kts 347°
2026-05-07 15:42 48.43673 11.63629 7227 ft 271 kts 347°
2026-05-07 15:42 48.45519 11.63109 7949 ft 275 kts 346°
2026-05-07 15:42 48.47416 11.62556 8596 ft 281 kts 346°
2026-05-07 15:42 48.49343 11.61990 9331 ft 285 kts 345°
2026-05-07 15:43 48.51282 11.61420 10046 ft 287 kts 345°
2026-05-07 15:43 48.53249 11.60840 10710 ft 293 kts 345°
2026-05-07 15:43 48.55267 11.60234 11253 ft 301 kts 344°
2026-05-07 15:43 48.57320 11.59455 11634 ft 314 kts 340°
2026-05-07 15:44 48.59402 11.58389 11944 ft 328 kts 336°
2026-05-07 15:44 48.61577 11.57129 12482 ft 335 kts 335°
2026-05-07 15:44 48.63746 11.55855 13157 ft 338 kts 334°
2026-05-07 15:44 48.65933 11.54576 13833 ft 340 kts 334°
2026-05-07 15:45 48.68134 11.53299 14490 ft 342 kts 334°
2026-05-07 15:45 48.70340 11.52025 15127 ft 344 kts 334°
2026-05-07 15:45 48.72575 11.50733 15758 ft 346 kts 334°
2026-05-07 15:45 48.74838 11.49423 16384 ft 348 kts 333°
2026-05-07 15:46 48.79363 11.46796 17594 ft 351 kts 333°
2026-05-07 15:46 48.81629 11.45478 18174 ft 352 kts 333°
2026-05-07 15:46 48.83923 11.44142 18741 ft 354 kts 333°
2026-05-07 15:47 48.86166 11.42835 19286 ft 355 kts 332°
2026-05-07 15:47 48.88467 11.41492 19829 ft 356 kts 332°
2026-05-07 15:47 48.90787 11.40137 20370 ft 357 kts 332°
2026-05-07 15:47 48.93056 11.38810 20886 ft 358 kts 332°
2026-05-07 15:48 48.95367 11.37458 21401 ft 359 kts 332°
2026-05-07 15:48 48.97506 11.36205 21867 ft 359 kts 332°
2026-05-07 15:48 48.99749 11.34890 22348 ft 360 kts 331°
2026-05-07 15:48 49.01782 11.33690 22816 ft 359 kts 331°
2026-05-07 15:49 49.04137 11.32295 23329 ft 360 kts 331°
2026-05-07 15:49 49.06470 11.30915 23801 ft 360 kts 331°
2026-05-07 15:49 49.08797 11.29542 24251 ft 361 kts 330°
2026-05-07 15:49 49.11097 11.28188 24686 ft 363 kts 330°
2026-05-07 15:50 49.13452 11.26808 25126 ft 363 kts 330°
2026-05-07 15:50 49.15801 11.25428 25539 ft 365 kts 330°
2026-05-07 15:50 49.18163 11.24042 25944 ft 367 kts 332°
2026-05-07 15:50 49.20649 11.22922 26352 ft 374 kts 338°
2026-05-07 15:51 49.23240 11.22281 26755 ft 382 kts 345°
2026-05-07 15:51 49.25922 11.22106 27147 ft 389 kts 350°
2026-05-07 15:51 49.28631 11.22113 27535 ft 390 kts 351°
2026-05-07 15:51 49.31338 11.22150 27911 ft 391 kts 351°
2026-05-07 15:52 49.34053 11.22187 28292 ft 391 kts 351°
2026-05-07 15:52 49.36780 11.22220 28693 ft 391 kts 350°
2026-05-07 15:52 49.39478 11.22247 29068 ft 391 kts 350°
2026-05-07 15:52 49.42187 11.22271 29427 ft 392 kts 350°
2026-05-07 15:53 49.44906 11.22293 29775 ft 392 kts 350°
2026-05-07 15:53 49.47658 11.22314 30003 ft 393 kts 350°
2026-05-07 15:53 49.50366 11.22337 30014 ft 392 kts 350°
2026-05-07 15:54 49.55809 11.22381 30021 ft 391 kts 350°
2026-05-07 15:54 49.61262 11.22397 30023 ft 391 kts 350°
2026-05-07 15:55 49.66687 11.22407 30023 ft 391 kts 350°
2026-05-07 15:55 49.72101 11.22408 30023 ft 391 kts 350°
2026-05-07 15:56 49.77505 11.22417 30023 ft 391 kts 350°
2026-05-07 15:56 49.82916 11.22451 30023 ft 391 kts 350°
2026-05-07 15:57 49.88347 11.22485 30023 ft 391 kts 350°
2026-05-07 15:57 49.93765 11.22517 30023 ft 391 kts 350°
2026-05-07 15:58 49.99209 11.22547 30022 ft 391 kts 350°
2026-05-07 15:58 50.04659 11.22578 30018 ft 391 kts 350°
2026-05-07 15:59 50.10041 11.22610 30012 ft 391 kts 350°
2026-05-07 15:59 50.15421 11.22648 30008 ft 391 kts 350°
2026-05-07 16:00 50.20866 11.22683 30005 ft 391 kts 350°
2026-05-07 16:00 50.26296 11.22714 30004 ft 391 kts 350°
2026-05-07 16:01 50.31757 11.22745 30004 ft 391 kts 350°
2026-05-07 16:01 50.37156 11.22569 30003 ft 386 kts 346°
2026-05-07 16:02 50.42481 11.21821 30004 ft 384 kts 345°
2026-05-07 16:02 50.47773 11.21012 30005 ft 384 kts 345°
2026-05-07 16:03 50.53099 11.20201 30010 ft 384 kts 345°
2026-05-07 16:03 50.58398 11.19394 30016 ft 384 kts 345°
2026-05-07 16:04 50.63700 11.18586 30020 ft 384 kts 345°
2026-05-07 16:04 50.69028 11.17775 30022 ft 383 kts 345°
2026-05-07 16:05 50.74334 11.16966 30023 ft 384 kts 345°
2026-05-07 16:05 50.79625 11.16155 30023 ft 383 kts 345°
2026-05-07 16:06 50.84907 11.15343 30023 ft 383 kts 345°
2026-05-07 16:06 50.90237 11.14526 30022 ft 384 kts 344°
2026-05-07 16:07 50.95567 11.13709 30021 ft 387 kts 343°
2026-05-07 16:07 51.00935 11.12878 30021 ft 392 kts 343°
2026-05-07 16:08 51.06398 11.12027 30022 ft 397 kts 342°
2026-05-07 16:08 51.11736 11.10683 30023 ft 387 kts 335°
2026-05-07 16:08 51.14301 11.09584 29872 ft 382 kts 332°
2026-05-07 16:09 51.16763 11.08216 29570 ft 375 kts 328°
2026-05-07 16:09 51.19014 11.06705 29287 ft 372 kts 326°
2026-05-07 16:09 51.21310 11.05072 28992 ft 372 kts 325°
2026-05-07 16:09 51.23682 11.03368 28688 ft 372 kts 325°
2026-05-07 16:10 51.26013 11.01696 28390 ft 372 kts 325°
2026-05-07 16:10 51.28292 11.00063 28098 ft 371 kts 325°
2026-05-07 16:10 51.30651 10.98371 27795 ft 371 kts 325°
2026-05-07 16:10 51.32966 10.96709 27498 ft 371 kts 325°
2026-05-07 16:11 51.35303 10.95029 27198 ft 370 kts 326°
2026-05-07 16:11 51.37630 10.93366 26899 ft 371 kts 326°
2026-05-07 16:11 51.39858 10.91881 26618 ft 371 kts 328°
2026-05-07 16:11 51.42205 10.90361 26322 ft 370 kts 328°
2026-05-07 16:12 51.44596 10.88817 26020 ft 369 kts 328°
2026-05-07 16:12 51.46958 10.87287 25721 ft 368 kts 328°
2026-05-07 16:12 51.49333 10.85746 25419 ft 367 kts 328°
2026-05-07 16:12 51.51680 10.84219 25129 ft 365 kts 328°
2026-05-07 16:13 51.53798 10.82839 24876 ft 365 kts 328°
2026-05-07 16:13 51.56153 10.81301 24389 ft 363 kts 328°
2026-05-07 16:13 51.58470 10.79787 23914 ft 361 kts 329°
2026-05-07 16:13 51.60703 10.78328 23453 ft 358 kts 329°
2026-05-07 16:14 51.62989 10.76830 22978 ft 356 kts 329°
2026-05-07 16:14 51.65294 10.75318 22497 ft 355 kts 329°
2026-05-07 16:14 51.67567 10.73824 22021 ft 353 kts 329°
2026-05-07 16:14 51.69811 10.72348 21547 ft 352 kts 329°
2026-05-07 16:15 51.72030 10.70887 21122 ft 349 kts 329°
2026-05-07 16:15 51.74255 10.69420 20724 ft 349 kts 330°
2026-05-07 16:15 51.76489 10.67946 20324 ft 348 kts 330°
2026-05-07 16:15 51.78721 10.66474 19923 ft 347 kts 330°
2026-05-07 16:16 51.80786 10.65111 19550 ft 346 kts 330°
2026-05-07 16:16 51.83004 10.63644 19149 ft 344 kts 330°
2026-05-07 16:16 51.85204 10.62188 18749 ft 343 kts 330°
2026-05-07 16:16 51.87237 10.60840 18379 ft 342 kts 330°
2026-05-07 16:17 51.89376 10.59420 17987 ft 340 kts 331°
2026-05-07 16:17 51.91585 10.57951 17581 ft 339 kts 331°
2026-05-07 16:17 51.93751 10.56508 17182 ft 338 kts 331°
2026-05-07 16:17 51.95934 10.55055 16777 ft 336 kts 331°
2026-05-07 16:18 51.96911 10.54400 16595 ft 335 kts 330°
2026-05-07 16:18 51.98785 10.52615 16198 ft 323 kts 314°
2026-05-07 16:18 52.00244 10.49927 15793 ft 313 kts 297°
2026-05-07 16:18 52.01091 10.46858 15408 ft 307 kts 285°
2026-05-07 16:19 52.01702 10.43786 15030 ft 307 kts 287°
2026-05-07 16:19 52.02623 10.40646 14630 ft 310 kts 295°
2026-05-07 16:19 52.03692 10.37618 14229 ft 309 kts 296°
2026-05-07 16:19 52.04747 10.34657 13834 ft 308 kts 296°
2026-05-07 16:20 52.05766 10.31750 13446 ft 305 kts 295°
2026-05-07 16:20 52.06787 10.28794 13050 ft 303 kts 295°
2026-05-07 16:20 52.07808 10.25804 12648 ft 302 kts 295°
2026-05-07 16:20 52.08800 10.22881 12205 ft 303 kts 295°
2026-05-07 16:21 52.09772 10.20001 11725 ft 304 kts 295°
2026-05-07 16:21 52.10720 10.17195 11258 ft 305 kts 296°
2026-05-07 16:21 52.11734 10.14215 10763 ft 305 kts 296°
2026-05-07 16:21 52.12694 10.11381 10302 ft 304 kts 297°
2026-05-07 16:22 52.13698 10.08412 10062 ft 295 kts 297°
2026-05-07 16:22 52.14661 10.05555 10038 ft 279 kts 297°
2026-05-07 16:22 52.15578 10.02828 10028 ft 271 kts 296°
2026-05-07 16:22 52.16423 10.00299 10017 ft 271 kts 296°
2026-05-07 16:23 52.17311 9.97635 10010 ft 271 kts 296°
2026-05-07 16:23 52.18185 9.95011 10004 ft 271 kts 296°
2026-05-07 16:23 52.19085 9.92304 9999 ft 271 kts 296°
2026-05-07 16:23 52.19964 9.89658 9995 ft 271 kts 296°
2026-05-07 16:24 52.20815 9.87092 9993 ft 271 kts 296°
2026-05-07 16:24 52.21702 9.84415 9832 ft 266 kts 296°
2026-05-07 16:24 52.22583 9.81750 9380 ft 268 kts 297°
2026-05-07 16:24 52.23397 9.79280 8943 ft 270 kts 297°
2026-05-07 16:25 52.24299 9.76547 8463 ft 272 kts 297°
2026-05-07 16:25 52.25149 9.73967 8013 ft 274 kts 298°
2026-05-07 16:25 52.26047 9.71241 7540 ft 275 kts 298°
2026-05-07 16:25 52.26933 9.68552 7127 ft 274 kts 298°
2026-05-07 16:26 52.27819 9.65861 6999 ft 263 kts 298°
2026-05-07 16:26 52.28687 9.63223 6962 ft 259 kts 298°
2026-05-07 16:26 52.29438 9.60935 6661 ft 258 kts 298°
2026-05-07 16:26 52.30320 9.58244 6026 ft 267 kts 298°
2026-05-07 16:27 52.31200 9.55553 5306 ft 278 kts 299°
2026-05-07 16:27 52.32099 9.52806 4826 ft 280 kts 299°
2026-05-07 16:27 52.33006 9.50033 4423 ft 278 kts 299°
2026-05-07 16:27 52.33899 9.47293 4006 ft 277 kts 299°
2026-05-07 16:28 52.34813 9.44489 3576 ft 276 kts 299°
2026-05-07 16:28 52.35703 9.41756 3160 ft 276 kts 299°
2026-05-07 16:28 52.36587 9.39038 2907 ft 274 kts 299°
2026-05-07 16:28 52.37548 9.36318 2881 ft 275 kts 309°
2026-05-07 16:29 52.38998 9.34381 2875 ft 275 kts 335°
2026-05-07 16:29 52.40831 9.33694 2888 ft 276 kts 356°
2026-05-07 16:29 52.42688 9.33713 2883 ft 270 kts
2026-05-07 16:29 52.44467 9.33966 2872 ft 254 kts 13°
2026-05-07 16:30 52.45962 9.35236 2868 ft 239 kts 43°
2026-05-07 16:30 52.46797 9.37462 2866 ft 225 kts 75°
2026-05-07 16:30 52.46774 9.39972 2886 ft 221 kts 102°
2026-05-07 16:30 52.46405 9.42326 2873 ft 206 kts 101°
2026-05-07 16:31 52.46165 9.44533 2836 ft 191 kts 95°
2026-05-07 16:31 52.46070 9.46640 2644 ft 189 kts 90°
2026-05-07 16:31 52.46031 9.48688 2408 ft 187 kts 90°
2026-05-07 16:31 52.45987 9.50815 2243 ft 186 kts 91°
2026-05-07 16:32 52.45930 9.52935 1996 ft 184 kts 91°
2026-05-07 16:32 52.45868 9.54948 1742 ft 172 kts 91°
2026-05-07 16:32 52.45810 9.56869 1515 ft 164 kts 91°
2026-05-07 16:32 52.45756 9.58716 1285 ft 162 kts 91°
2026-05-07 16:33 52.45703 9.60557 1060 ft 162 kts 91°
2026-05-07 16:33 52.45650 9.62389 835 ft 157 kts 92°
2026-05-07 16:33 52.45601 9.64097 614 ft 146 kts 92°
2026-05-07 16:33 52.45554 9.65751 415 ft 145 kts 93°
2026-05-07 16:34 52.45506 9.67400 237 ft 144 kts 93°
2026-05-07 16:34 52.45464 9.68990 167 ft 120 kts 94°
2026-05-07 16:34 52.45439 9.69877 172 ft 47 kts 93°
2026-05-07 16:34 52.45423 9.70374 174 ft 32 kts 92°
2026-05-07 16:35 52.45422 9.70613 175 ft 16 kts 76°
2026-05-07 16:35 52.45504 9.70671 176 ft 10 kts
2026-05-07 16:35 52.45526 9.70672 176 ft 0 kts
2026-05-07 16:36 52.45533 9.70673 176 ft 2 kts
2026-05-07 16:37 52.45560 9.70673 176 ft 5 kts
2026-05-07 16:37 52.45610 9.70671 176 ft 8 kts 350°
2026-05-07 16:37 52.45651 9.70572 176 ft 11 kts 274°
2026-05-07 16:37 52.45655 9.70424 176 ft 14 kts 272°
2026-05-07 16:38 52.45660 9.70249 176 ft 15 kts 274°
2026-05-07 16:38 52.45665 9.70065 176 ft 16 kts 272°
2026-05-07 16:38 52.45671 9.69874 176 ft 17 kts 273°
2026-05-07 16:38 52.45675 9.69676 176 ft 17 kts 272°
2026-05-07 16:39 52.45693 9.69514 177 ft 11 kts 312°
2026-05-07 16:39 52.45744 9.69455 176 ft 9 kts 316°
2026-05-07 16:39 52.45767 9.69356 173 ft 7 kts 316°
2026-05-07 16:39 52.45814 9.69369 174 ft 5 kts 31°
2026-05-07 16:40 52.45830 9.69384 175 ft 0 kts 30°
2026-05-07 16:40 52.45832 9.69387 175 ft 0 kts 29°
2026-05-07 16:40 52.45835 9.69389 175 ft 0 kts 30°